Location: Roland
(31.1349°N, 85.4372°W)
Time: 02:04:33
(UTC+00:00)

S-56A Canister/Altair - Pass Details

Date: 25 April 2021
Orbit: 632 x 2500 km, 38.9° (Epoch: 06 May)

Event Time Altitude Azimuth Distance (km) Brightness Sun altitude
Rises 03:01:26 0° 246° (WSW) 5,653 12.2 -31.6°
Reaches altitude 10° 03:05:33 10° 247° (WSW) 4,406 11.6 -32.2°
Maximum altitude 03:16:56 81° 335° (NNW) 1,455 8.7 -33.9°
Enters shadow 03:18:43 61° 50° (NE) 1,511 8.8 -34.2°
